Location: Bittelbronn
(48.4454°N, 8.5870°E)
Time: 15:55:56
(UTC+00:00)

MOZ.5/SAFIR/RUBIN 5/SL-8 - Pass Details

Date: 23 May 2024
Orbit: 671 x 700 km, 98.3° (Epoch: 16 June)

Event Time Altitude Azimuth Distance (km) Brightness Sun altitude
Exits shadow 01:18:25 28° 198° (SSW) 1,305 4.6 -16.2°
Maximum altitude 01:20:40 51° 260° (W) 878 4.0 -16.0°
Drops below altitude 10° 01:25:17 10° 337° (NNW) 2,159 6.8 -15.7°
Sets 01:27:36 0° 342° (NNW) 3,076 7.8 -15.5°
